Location: Bogis-Bossey
(46.3500°N, 6.1667°E)
Time: 17:58:07
(UTC+00:00)

Cosmos 1459 Rocket - Pass Details

Date: 17 August 2022
Orbit: 937 x 998 km, 83.0° (Epoch: 30 September)

Event Time Altitude Azimuth Distance (km) Brightness Sun altitude
Rises 19:20:16 0° 355° (N) 3,681 7.5 -6.9°
Reaches altitude 10° 19:22:51 10° 0° (N) 2,738 6.8 -7.3°
Maximum altitude 19:28:59 52° 76° (ENE) 1,216 4.3 -8.3°
Drops below altitude 10° 19:35:07 10° 152° (SSE) 2,753 5.9 -9.2°
Enters shadow 19:36:26 - 155° (SSE) 3,225 6.2 -9.4°
